Location: Unspecified
(40.9447°N, 78.9903°W)
Time: 08:31:40
(UTC-04:00)

Envisat - Visible Passes

Search period start: 17 October 2019 00:00
Search period end: 27 October 2019 00:00
Orbit: 764 x 766 km, 98.1° (Epoch: 17 October)

Date Brightness Start Highest point End Pass type
(mag) Time Alt. Az. Time Alt. Az. Time Alt. Az.
17 Oct 5.3 20:22:41 10° SSW 20:26:44 24° W 20:30:48 10° NW visible
18 Oct 6.4 06:53:32 10° ENE 06:56:01 13° E 06:58:29 10° ESE visible
18 Oct 3.8 19:44:49 10° S 19:49:45 53° W 19:54:45 10° NNW visible
19 Oct 3.0 19:07:58 10° SSE 19:12:59 69° ENE 19:18:03 10° N visible
19 Oct 6.1 20:50:03 10° WSW 20:52:29 13° W 20:54:57 10° WNW visible
20 Oct 4.9 20:10:57 10° SSW 20:15:23 30° W 20:19:51 10° NW visible
21 Oct 6.7 06:44:00 10° E 06:44:36 10° E 06:45:13 10° E visible
21 Oct 3.4 19:33:26 10° S 19:38:28 68° WSW 19:43:33 10° NNW visible
22 Oct 3.1 18:56:50 10° SSE 19:01:46 54° ENE 19:06:43 10° N visible
22 Oct 5.8 20:37:49 10° SW 20:41:06 17° W 20:44:25 10° NW visible
23 Oct 6.1 07:06:50 10° NE 07:10:25 19° E 07:13:58 10° SE visible
23 Oct 4.5 19:59:21 10° SSW 20:04:03 38° W 20:08:47 10° NNW visible
24 Oct 3.0 19:22:08 10° SSE 19:27:12 86° WSW 19:32:19 10° NNW visible
25 Oct 3.3 18:45:47 10° SE 18:50:33 43° ENE 18:55:20 10° N visible
25 Oct 5.5 20:25:51 10° SW 20:29:44 22° W 20:33:38 10° NW visible
26 Oct 6.2 06:56:11 10° NE 06:59:02 15° E 07:01:53 10° SE visible
26 Oct 4.0 19:47:51 10° S 19:52:45 48° W 19:57:40 10° NNW visible
